CW2444 Weather Reports


Display with metric or nautical units.
time (UTC)temp
F
wind
direction
speed
MPH
gust
MPH
rain 1hr
in
rain 24hr
in
rain mn
in
humidity
%
barometer
mb
20190616072457 68 215 0.0 0.0 0.00 0.00 0.00 57 1011.7
20190616071443 67 220 0.0 0.0 0.00 0.00 0.00 58 1011.8
20190616070438 67 229 0.0 0.0 0.00 0.00 0.00 57 1011.7
20190616065440 68 244 0.0 0.0 0.00 0.00 0.00 57 1011.7
20190616064436 68 225 0.0 0.0 0.00 0.00 0.00 57 1011.8
20190616063434 67 221 0.0 0.0 0.00 0.00 0.00 58 1011.8
20190616062451 68 217 0.0 0.0 0.00 0.00 0.00 56 1011.8
20190616061437 67 227 0.0 0.0 0.00 0.00 0.00 57 1011.9
20190616060431 67 227 0.0 0.0 0.00 0.00 0.00 57 1011.7
20190616055453 68 226 0.0 0.0 0.00 0.00 0.00 56 1011.8
20190616054438 67 229 0.0 0.0 0.00 0.00 0.00 55 1011.6
20190616053434 66 230 0.0 0.0 0.00 0.00 0.00 54 1011.8
20190616052450 69 228 0.0 0.0 0.00 0.00 0.00 51 1011.6
20190616051435 67 233 0.0 0.0 0.00 0.00 0.00 56 1011.6
20190616050434 65 232 0.0 0.0 0.00 0.00 0.00 60 1011.5
20190616045449 63 229 0.0 0.0 0.00 0.00 0.00 67 1011.4
20190616044435 64 211 0.0 0.0 0.00 0.00 0.00 68 1011.2
20190616043431 66 213 0.0 0.0 0.00 0.00 0.00 64 1011.1
20190616042448 69 210 0.0 0.0 0.00 0.00 0.00 55 1011.0
20190616041438 70 136 0.0 0.0 0.00 0.00 0.00 49 1010.9
20190616040433 72 55 0.0 0.0 0.00 0.00 0.00 48 1010.9
20190616035449 75 55 0.0 0.0 0.00 0.00 0.00 42 1010.8
20190616034430 79 55 0.0 0.0 0.00 0.00 0.00 40 1010.8
20190616033447 80 55 0.0 0.0 0.00 0.00 0.00 37 1010.7
20190616032435 81 55 0.0 0.0 0.00 0.00 0.00 39 1010.7
20190616031448 83 55 0.0 0.0 0.00 0.00 0.00 37 1010.8
20190616030442 86 55 0.0 0.0 0.00 0.00 0.00 29 1010.7
20190616025457 86 55 0.0 0.0 0.00 0.00 0.00 27 1010.6
20190616024440 86 56 0.0 0.0 0.00 0.00 0.00 29 1010.6
20190616023440 86 56 0.0 0.0 0.00 0.00 0.00 29 1010.7
20190616022456 86 56 0.0 0.0 0.00 0.00 0.00 30 1010.7
20190616021440 86 56 0.0 0.0 0.00 0.00 0.00 30 1010.7
20190616020434 86 56 0.0 0.0 0.00 0.00 0.00 28 1010.6
20190616015449 87 56 0.0 0.0 0.00 0.00 0.00 28 1010.5
20190616014436 87 56 0.0 0.0 0.00 0.00 0.00 25 1010.5
20190616013431 87 56 0.0 0.0 0.00 0.00 0.00 24 1010.5
20190616012445 87 56 0.0 0.0 0.00 0.00 0.00 24 1010.5
20190616011429 87 67 0.0 0.0 0.00 0.00 0.00 23 1010.6
20190616010446 87 72 0.0 0.0 0.00 0.00 0.00 23 1010.5
20190616005434 87 29 0.0 0.0 0.00 0.00 0.00 23 1010.5
20190616004428 88 30 0.0 0.0 0.00 0.00 0.00 24 1010.8
20190616003446 87 28 0.0 0.0 0.00 0.00 0.00 24 1010.8
20190616002431 88 46 0.0 0.0 0.00 0.00 0.00 24 1010.9
20190616001445 88 1 0.0 0.0 0.00 0.00 0.00 25 1010.9
20190616000444 88 342 0.0 0.0 0.00 0.00 0.00 25 1010.9
20190615235429 88 346 0.0 0.0 0.00 0.00 0.00 26 1011.1
20190615234444 88 313 0.0 0.0 0.00 0.00 0.00 27 1011.2
20190615233439 87 310 0.0 0.0 0.00 0.00 0.00 30 1011.3
20190615232455 86 0 0.0 0.0 0.00 0.00 0.00 28 1011.4
20190615231444 86 322 0.0 0.0 0.00 0.00 0.00 30 1011.4
20190615230438 86 331 0.0 0.0 0.00 0.00 0.00 32 1011.5
20190615225456 86 303 0.0 0.0 0.00 0.00 0.00 30 1011.7
20190615224444 85 322 0.0 0.0 0.00 0.00 0.00 31 1011.8
20190615223442 85 0 0.0 0.0 0.00 0.00 0.00 30 1011.8
20190615222430 84 0 0.0 0.0 0.00 0.00 0.00 31 1012.0
20190615221444 84 355 0.0 0.0 0.00 0.00 0.00 31 1012.0
20190615220440 85 1 0.0 0.0 0.00 0.00 0.00 31 1012.1
20190615215454 85 326 0.0 0.0 0.00 0.00 0.00 31 1012.2
20190615214438 85 350 0.0 0.0 0.00 0.00 0.00 32 1012.1
20190615160432 69 278 0.0 0.0 0.00 0.00 0.00 44 1014.6
20190615155450 69 287 0.0 0.0 0.00 0.00 0.00 45 1014.7
20190615154436 69 269 0.0 0.0 0.00 0.00 0.00 42 1014.8
20190615153451 69 245 0.0 0.0 0.00 0.00 0.00 42 1014.8
20190615152435 68 274 0.0 0.0 0.00 0.00 0.00 42 1014.6
20190615151432 68 258 0.0 0.0 0.00 0.00 0.00 45 1014.7
20190615150428 67 279 0.0 0.0 0.00 0.00 0.00 46 1014.8
20190615145446 67 258 0.0 0.0 0.00 0.00 0.00 47 1014.8
20190615144433 66 258 0.0 0.0 0.00 0.00 0.00 47 1014.8
20190615143447 65 205 0.0 0.0 0.00 0.00 0.00 46 1014.7
20190615142448 64 205 0.0 0.0 0.00 0.00 0.00 47 1014.6
20190615141452 64 205 0.0 0.0 0.00 0.00 0.00 49 1014.6
20190615140438 63 205 0.0 0.0 0.00 0.00 0.00 49 1014.6
20190615135455 62 206 0.0 0.0 0.00 0.00 0.00 51 1014.5
20190615134439 61 206 0.0 0.0 0.00 0.00 0.00 54 1014.5
20190615133437 59 206 0.0 0.0 0.00 0.00 0.00 58 1014.4
20190615132454 58 206 0.0 0.0 0.00 0.00 0.00 61 1014.3
20190615131439 56 206 0.0 0.0 0.00 0.00 0.00 63 1014.3
20190615130435 56 205 0.0 0.0 0.00 0.00 0.00 62 1014.1
20190615125452 56 198 0.0 0.0 0.00 0.00 0.00 64 1014.2
20190615124444 54 184 0.0 0.0 0.00 0.00 0.00 68 1014.2
20190615123441 54 226 0.0 0.0 0.00 0.00 0.00 65 1014.1
20190615122443 55 194 0.0 0.0 0.00 0.00 0.00 62 1014.0
20190615121444 54 208 0.0 0.0 0.00 0.00 0.00 63 1014.1
20190615120442 55 204 0.0 0.0 0.00 0.00 0.00 61 1014.0
20190615115431 56 185 0.0 0.0 0.00 0.00 0.00 58 1014.0
20190615114444 57 202 0.0 0.0 0.00 0.00 0.00 56 1014.0
20190615113437 57 235 0.0 0.0 0.00 0.00 0.00 57 1013.9
20190615112457 56 213 0.0 0.0 0.00 0.00 0.00 55 1013.9
20190615111439 57 195 0.0 0.0 0.00 0.00 0.00 54 1013.8
20190615110438 57 236 0.0 0.0 0.00 0.00 0.00 54 1013.7
20190615105456 58 235 0.0 0.0 0.00 0.00 0.00 54 1013.6
20190615104443 59 230 0.0 0.0 0.00 0.00 0.00 51 1013.5
20190615103439 61 227 0.0 0.0 0.00 0.00 0.00 47 1013.4
20190615102453 61 245 0.0 0.0 0.00 0.00 0.00 46 1013.4
20190615101442 61 250 0.0 0.0 0.00 0.00 0.00 46 1013.4
20190615100436 61 238 0.0 0.0 0.00 0.00 0.00 49 1013.4
20190615095457 60 231 0.0 0.0 0.00 0.00 0.00 48 1013.4
20190615094441 62 233 0.0 0.0 0.00 0.00 0.00 46 1013.4
20190615093438 62 234 0.0 0.0 0.00 0.00 0.00 45 1013.2
20190615092455 63 266 0.0 0.0 0.00 0.00 0.00 43 1013.2
20190615091440 64 237 0.0 0.0 0.00 0.00 0.00 42 1013.3
20190615090434 64 248 0.0 0.0 0.00 0.00 0.00 42 1013.1
20190615085450 64 263 0.0 0.0 0.00 0.00 0.00 42 1013.1
20190615084434 64 253 0.0 0.0 0.00 0.00 0.00 43 1013.0
20190615083435 64 239 0.0 0.0 0.00 0.00 0.00 43 1013.1
20190615082452 64 234 0.0 0.0 0.00 0.00 0.00 43 1013.0
20190615081438 65 236 0.0 0.0 0.00 0.00 0.00 43 1012.9
20190615080434 65 231 0.0 0.0 0.00 0.00 0.00 43 1012.8
20190615075450 65 231 0.0 0.0 0.00 0.00 0.00 43 1012.7
20190615074440 65 242 0.0 0.0 0.00 0.00 0.00 44 1012.6
20190615073458 65 234 0.0 0.0 0.00 0.00 0.00 44 1012.5